Temp
-9 -8 -9 -9 -9 -9 -8 -8 -7 -8 -7 -7 -6 -7 -7 -7 -8 -8 -7 -8 -9 -9 -10 -10 -10 -10 -10 -10 -10 -10 -9 -10 -10 -10 -10 -10 -10 -9 -9 -9 -9 -9 -9 -8 -9 -9 -9 -9 -9
-9 -9 -9 -9 -9 -8 -8 -7 -8 -7 -7 -7 -6 -7 -7 -7 -8 -8 -7 -8 -9 -9 -10 -10 -10 -10 -9 -10 -10 -10 -9 -10 -10 -10 -10 -10 -10 -9 -9 -9 -9 -9 -9 -9 -9 -9 -9 -9 -9
-9 -9 -9 -9 -9 -8 -7 -8 -8 -8 -7 -7 -7 -7 -7 -7 -8 -8 -7 -8 -9 -9 -10 -10 -10 -9 -9 -9 -9 -10 -9 -10 -10 -10 -10 -10 -9 -9 -9 -9 -9 -9 -9 -9 -9 -9 -9 -9 -9
-9 -9 -9 -9 -9 -8 -8 -8 -8 -8 -8 -7 -7 -7 -7 -7 -8 -8 -8 -8 -8 -9 -10 -9 -9 -9 -9 -9 -10 -10 -10 -10 -9 -10 -10 -9 -9 -9 -9 -9 -9 -9 -9 -9 -9 -9 -9 -9 -9
-9 -9 -9 -9 -9 -9 -8 -8 -8 -8 -8 -7 -7 -7 -7 -7 -7 -8 -8 -8 -8 -8 -8 -9 -9 -9 -9 -9 -9 -9 -10 -10 -9 -9 -9 -9 -9 -9 -9 -9 -9 -9 -8 -8 -8 -9 -9 -9 -9
-9 -9 -9 -9 -9 -9 -9 -8 -8 -8 -8 -7 -7 -7 -7 -7 -7 -8 -8 -8 -8 -8 -8 -9 -9 -9 -9 -9 -9 -9 -9 -9 -9 -9 -9 -9 -9 -9 -9 -9 -9 -9 -8 -8 -9 -9 -9 -9 -9
-10 -10 -10 -10 -9 -8 -9 -8 -8 -8 -8 -7 -7 -7 -7 -7 -8 -8 -8 -8 -8 -8 -8 -8 -9 -9 -9 -9 -9 -9 -9 -9 -9 -9 -9 -10 -9 -9 -9 -9 -9 -9 -9 -9 -9 -9 -10 -10 -10
-10 -10 -10 -10 -9 -8 -9 -8 -8 -8 -7 -7 -8 -7 -7 -7 -8 -8 -8 -8 -8 -8 -8 -8 -8 -9 -9 -9 -9 -9 -9 -8 -9 -10 -10 -10 -9 -9 -9 -9 -9 -9 -9 -9 -9 -10 -10 -10 -10
-9 -10 -10 -10 -9 -8 -10 -9 -8 -8 -8 -8 -8 -8 -8 -8 -8 -8 -8 -8 -8 -8 -8 -8 -8 -8 -9 -9 -9 -9 -9 -9 -9 -9 -10 -10 -9 -9 -9 -9 -9 -9 -10 -10 -10 -10 -10 -10 -10
-10 -10 -10 -10 -10 -9 -10 -9 -9 -8 -8 -8 -8 -8 -8 -7 -8 -8 -7 -8 -8 -7 -8 -8 -8 -8 -8 -9 -9 -9 -9 -9 -9 -9 -10 -10 -9 -9 -9 -10 -10 -10 -10 -10 -10 -10 -10 -10 -10
-10 -10 -10 -9 -10 -10 -10 -9 -9 -9 -8 -8 -8 -8 -8 -8 -8 -8 -8 -8 -8 -8 -8 -8 -8 -8 -9 -8 -8 -9 -9 -9 -9 -9 -10 -10 -10 -10 -10 -10 -10 -10 -10 -10 -10 -10 -10 -10 -10
-10 -10 -10 -10 -10 -10 -10 -10 -10 -9 -9 -8 -8 -7 -8 -8 -8 -8 -7 -7 -7 -8 -7 -8 -8 -8 -8 -9 -9 -8 -8 -9 -9 -10 -10 -10 -10 -10 -11 -11 -10 -10 -10 -10 -10 -10 -10 -10 -10
-10 -10 -10 -10 -10 -10 -10 -10 -10 -9 -9 -9 -9 -8 -8 -7 -8 -8 -8 -7 -7 -8 -8 -8 -8 -8 -8 -8 -9 -9 -9 -9 -9 -9 -10 -10 -10 -10 -10 -11 -10 -10 -10 -11 -11 -11 -11 -10 -10
-11 -10 -10 -9 -10 -10 -9 -10 -10 -10 -9 -9 -9 -9 -8 -8 -8 -7 -8 -7 -7 -8 -8 -8 -8 -8 -9 -9 -8 -8 -9 -9 -10 -10 -10 -10 -10 -10 -11 -11 -10 -11 -11 -11 -11 -11 -11 -11 -11
-11 -10 -10 -9 -10 -10 -9 -10 -10 -10 -9 -9 -9 -9 -9 -8 -8 -7 -8 -8 -8 -8 -8 -8 -8 -8 -8 -9 -9 -8 -9 -9 -10 -10 -10 -10 -10 -11 -11 -11 -11 -11 -11 -11 -11 -11 -11 -11 -11
-11 -10 -9 -10 -10 -10 -10 -10 -10 -10 -9 -9 -9 -9 -9 -9 -8 -8 -8 -8 -8 -8 -8 -8 -8 -8 -9 -9 -9 -9 -9 -10 -10 -10 -10 -10 -11 -11 -11 -11 -11 -11 -11 -11 -11 -11 -11 -11 -11
-11 -10 -9 -9 -10 -9 -10 -10 -10 -9 -9 -9 -9 -9 -9 -9 -9 -9 -8 -8 -8 -8 -8 -8 -9 -9 -9 -9 -9 -9 -10 -10 -10 -11 -10 -10 -11 -11 -11 -12 -12 -12 -11 -11 -11 -11 -11 -11 -11
-10 -10 -9 -9 -10 -10 -10 -10 -10 -10 -9 -9 -9 -9 -9 -9 -9 -9 -9 -9 -9 -9 -9 -9 -9 -9 -9 -10 -10 -10 -10 -10 -10 -10 -10 -11 -11 -11 -11 -11 -11 -11 -11 -11 -11 -11 -11 -11 -11
-11 -11 -10 -10 -10 -10 -10 -10 -10 -9 -9 -9 -9 -9 -9 -9 -9 -9 -9 -9 -9 -9 -9 -9 -10 -10 -10 -10 -10 -10 -10 -10 -10 -10 -11 -11 -11 -12 -11 -11 -11 -11 -11 -11 -11 -12 -12 -12 -12
-12 -11 -11 -11 -10 -10 -10 -9 -9 -9 -9 -10 -10 -9 -9 -9 -9 -9 -9 -9 -10 -10 -10 -10 -10 -10 -10 -10 -11 -10 -10 -11 -11 -11 -11 -11 -11 -11 -11 -11 -12 -12 -12 -12 -11 -11 -12 -12 -12
-12 -11 -11 -11 -11 -10 -10 -9 -9 -10 -10 -10 -10 -10 -9 -9 -9 -9 -9 -10 -10 -10 -11 -11 -11 -10 -10 -10 -11 -11 -11 -11 -11 -11 -11 -11 -11 -11 -11 -12 -12 -12 -12 -12 -12 -11 -11 -12 -12
-12 -12 -12 -12 -11 -10 -10 -9 -9 -9 -9 -10 -10 -10 -10 -10 -10 -9 -9 -9 -10 -11 -11 -11 -11 -11 -11 -11 -11 -11 -11 -11 -11 -11 -11 -11 -11 -12 -12 -12 -12 -12 -12 -12 -12 -12 -12 -12 -12
-13 -14 -13 -12 -11 -11 -11 -10 -9 -9 -9 -10 -10 -10 -10 -10 -10 -10 -9 -9 -9 -9 -9 -10 -10 -11 -11 -11 -11 -11 -11 -11 -12 -12 -11 -11 -11 -11 -12 -12 -12 -12 -12 -12 -12 -12 -12 -12 -13
-15 -14 -14 -13 -12 -12 -11 -10 -9 -9 -10 -10 -10 -10 -10 -10 -10 -10 -10 -10 -10 -9 -9 -9 -11 -11 -11 -11 -11 -11 -11 -11 -11 -11 -11 -11 -11 -12 -12 -12 -12 -12 -12 -12 -12 -12 -13 -13 -13
-15 -14 -14 -14 -13 -10 -11 -10 -8 -9 -10 -11 -10 -10 -10 -10 -10 -10 -10 -10 -10 -10 -9 -9 -9 -9 -10 -10 -10 -11 -11 -11 -11 -11 -11 -11 -12 -12 -12 -12 -12 -12 -12 -12 -13 -13 -13 -13 -13
-14 -14 -14 -13 -12 -11 -12 -10 -9 -10 -10 -11 -11 -11 -10 -10 -11 -10 -10 -10 -10 -10 -10 -10 -9 -10 -10 -10 -10 -10 -10 -11 -11 -11 -12 -11 -12 -12 -12 -12 -12 -12 -13 -13 -13 -13 -13 -13 -13
-14 -14 -14 -14 -13 -12 -11 -10 -10 -10 -11 -10 -11 -11 -11 -10 -10 -10 -10 -10 -10 -10 -10 -10 -10 -10 -10 -10 -10 -10 -11 -11 -11 -12 -11 -12 -12 -13 -13 -13 -13 -13 -13 -13 -13 -13 -13 -14 -14
-15 -14 -14 -13 -13 -12 -11 -11 -11 -10 -11 -11 -11 -10 -10 -11 -10 -10 -10 -10 -10 -10 -11 -10 -11 -11 -11 -11 -11 -11 -11 -12 -12 -12 -12 -12 -13 -13 -14 -14 -14 -13 -13 -13 -14 -14 -14 -14 -14
-14 -14 -14 -13 -13 -13 -12 -11 -11 -11 -11 -11 -11 -11 -11 -10 -10 -11 -10 -10 -10 -10 -10 -10 -11 -11 -11 -12 -12 -11 -12 -12 -12 -12 -13 -13 -13 -14 -14 -14 -14 -14 -14 -15 -14 -14 -15 -15 -15
-14 -14 -14 -13 -12 -12 -12 -11 -11 -11 -11 -11 -11 -11 -11 -11 -11 -11 -11 -11 -10 -10 -10 -11 -11 -11 -12 -12 -12 -12 -12 -12 -12 -13 -13 -13 -13 -14 -14 -15 -15 -16 -16 -15 -15 -16 -16 -16 -15
Height
5873 5876 5879 5882 5886 5882 5882 5883 5886 5886 5886 5886 5886 5885 5884 5884 5884 5884 5879 5879 5878 5878 5879 5880 5881 5882 5883 5884 5885 5886 5888 5891 5894 5895 5897 5897 5898 5898 5897 5896 5895 5895 5894 5894 5894 5893 5893 5892 5892
5871 5874 5877 5880 5882 5879 5882 5884 5885 5885 5886 5886 5886 5885 5884 5884 5883 5882 5881 5879 5878 5879 5880 5881 5882 5883 5885 5885 5887 5889 5890 5892 5894 5896 5898 5898 5898 5898 5897 5897 5897 5896 5895 5895 5895 5894 5894 5893 5893
5868 5871 5875 5877 5877 5878 5880 5884 5883 5884 5885 5886 5885 5885 5884 5884 5883 5882 5881 5880 5879 5879 5881 5882 5882 5884 5886 5887 5889 5891 5893 5894 5895 5897 5898 5899 5899 5898 5898 5898 5898 5897 5897 5896 5896 5895 5894 5894 5894
5865 5870 5874 5875 5874 5877 5879 5880 5880 5882 5883 5885 5885 5884 5884 5884 5883 5882 5882 5881 5880 5881 5882 5883 5883 5885 5888 5890 5891 5893 5895 5896 5898 5898 5898 5899 5899 5899 5899 5899 5898 5898 5898 5897 5896 5896 5895 5895 5894
5863 5867 5870 5872 5872 5876 5875 5878 5879 5880 5881 5884 5883 5883 5883 5884 5884 5883 5883 5883 5882 5882 5883 5884 5885 5887 5889 5891 5893 5895 5896 5898 5899 5900 5900 5900 5900 5900 5900 5900 5899 5899 5898 5898 5897 5897 5895 5894 5893
5861 5864 5868 5869 5869 5873 5874 5875 5878 5880 5879 5881 5882 5882 5882 5883 5884 5884 5884 5884 5884 5884 5885 5887 5887 5889 5890 5892 5895 5896 5896 5898 5900 5901 5900 5900 5901 5901 5901 5900 5900 5899 5898 5898 5897 5896 5895 5893 5892
5858 5862 5865 5866 5866 5871 5873 5874 5876 5878 5879 5879 5881 5881 5882 5883 5884 5882 5883 5884 5886 5886 5887 5888 5890 5890 5891 5892 5894 5896 5897 5898 5899 5900 5900 5901 5901 5901 5901 5900 5900 5899 5898 5897 5896 5895 5894 5894 5893
5855 5860 5862 5864 5865 5870 5871 5873 5875 5875 5876 5878 5879 5878 5881 5882 5883 5882 5883 5884 5885 5886 5887 5888 5890 5892 5893 5894 5895 5896 5898 5899 5900 5899 5899 5900 5901 5901 5901 5900 5899 5898 5898 5896 5896 5895 5894 5893 5892
5852 5858 5859 5861 5861 5867 5870 5871 5873 5874 5874 5877 5878 5877 5880 5881 5881 5883 5882 5883 5884 5886 5887 5889 5889 5892 5894 5894 5895 5896 5897 5898 5898 5898 5899 5900 5901 5900 5900 5900 5899 5898 5897 5897 5896 5895 5895 5893 5892
5848 5855 5856 5856 5858 5865 5866 5868 5870 5871 5871 5875 5875 5876 5878 5881 5880 5882 5882 5882 5884 5885 5887 5888 5889 5890 5892 5894 5895 5896 5897 5898 5898 5898 5898 5899 5900 5900 5899 5899 5899 5899 5898 5897 5896 5895 5894 5893 5891
5845 5852 5849 5853 5858 5861 5860 5866 5866 5869 5870 5874 5872 5873 5875 5878 5879 5880 5881 5881 5882 5884 5886 5888 5890 5889 5890 5892 5894 5895 5896 5897 5897 5897 5897 5898 5899 5899 5900 5899 5899 5898 5898 5897 5895 5894 5893 5891 5890
5842 5845 5846 5851 5853 5856 5859 5862 5863 5865 5868 5872 5870 5872 5873 5874 5877 5878 5879 5881 5882 5883 5886 5887 5888 5889 5890 5890 5891 5892 5894 5895 5896 5896 5896 5897 5898 5898 5898 5898 5898 5897 5896 5895 5894 5892 5891 5889 5888
5837 5840 5840 5846 5849 5852 5855 5859 5860 5862 5865 5869 5870 5869 5871 5871 5873 5875 5877 5878 5880 5880 5883 5885 5887 5887 5888 5889 5890 5891 5892 5893 5892 5894 5894 5895 5896 5896 5896 5896 5895 5894 5893 5892 5891 5889 5888 5886 5885
5831 5833 5833 5842 5847 5846 5851 5855 5858 5859 5861 5864 5867 5865 5868 5869 5870 5873 5875 5876 5877 5879 5881 5883 5884 5885 5886 5887 5888 5888 5889 5891 5891 5891 5892 5892 5893 5894 5894 5893 5893 5892 5891 5889 5888 5887 5885 5884 5881
5825 5829 5830 5837 5842 5842 5846 5852 5853 5852 5855 5859 5863 5863 5865 5866 5868 5871 5873 5872 5875 5877 5878 5879 5882 5882 5883 5884 5885 5885 5885 5886 5888 5890 5890 5889 5890 5890 5890 5891 5890 5889 5888 5887 5885 5883 5881 5880 5878
5818 5823 5823 5831 5834 5838 5841 5848 5848 5847 5853 5853 5858 5861 5861 5863 5865 5868 5871 5872 5872 5873 5874 5875 5877 5879 5880 5881 5881 5882 5883 5883 5884 5884 5886 5887 5887 5887 5887 5887 5887 5886 5885 5883 5880 5878 5876 5875 5873
5810 5814 5817 5825 5828 5834 5838 5844 5843 5844 5849 5850 5853 5858 5857 5859 5861 5864 5867 5869 5869 5870 5871 5873 5874 5875 5877 5877 5878 5878 5878 5878 5880 5881 5881 5881 5881 5882 5882 5882 5881 5881 5880 5879 5877 5875 5872 5870 5868
5803 5807 5812 5820 5827 5829 5832 5838 5837 5840 5844 5846 5850 5854 5855 5855 5857 5859 5862 5865 5867 5867 5868 5871 5871 5872 5873 5874 5874 5873 5875 5875 5876 5876 5877 5878 5878 5878 5877 5878 5878 5877 5876 5874 5873 5870 5868 5865 5862
5797 5800 5806 5814 5819 5819 5826 5830 5833 5834 5841 5844 5848 5849 5852 5851 5851 5854 5857 5860 5862 5865 5865 5865 5867 5868 5871 5871 5870 5869 5870 5872 5872 5873 5874 5873 5873 5873 5873 5872 5872 5872 5871 5870 5867 5866 5863 5860 5856
5787 5794 5801 5808 5809 5812 5819 5825 5828 5828 5836 5838 5842 5843 5847 5847 5848 5848 5850 5854 5857 5858 5861 5862 5863 5864 5864 5867 5867 5867 5867 5868 5868 5868 5869 5869 5868 5869 5869 5868 5867 5866 5864 5864 5861 5859 5856 5853 5849
5778 5785 5792 5798 5803 5806 5812 5816 5821 5826 5828 5832 5836 5838 5841 5842 5843 5844 5847 5848 5850 5853 5854 5856 5856 5857 5860 5862 5863 5864 5864 5864 5863 5863 5862 5863 5863 5862 5861 5860 5860 5859 5858 5856 5855 5853 5850 5846 5842
5772 5779 5783 5789 5795 5797 5806 5810 5813 5819 5823 5826 5830 5832 5835 5836 5839 5840 5841 5843 5844 5845 5847 5848 5850 5851 5852 5854 5857 5858 5859 5860 5859 5858 5859 5858 5858 5857 5854 5853 5852 5851 5850 5848 5846 5843 5841 5839 5834
5765 5771 5777 5784 5788 5790 5796 5798 5811 5810 5815 5823 5824 5827 5830 5830 5833 5836 5837 5836 5839 5840 5841 5842 5844 5846 5847 5849 5850 5851 5853 5853 5853 5852 5851 5851 5851 5850 5848 5847 5844 5843 5841 5839 5837 5834 5831 5829 5827
5757 5763 5768 5774 5777 5776 5787 5793 5801 5805 5810 5816 5818 5822 5824 5827 5827 5829 5832 5832 5834 5834 5835 5836 5837 5839 5840 5840 5843 5844 5844 5846 5846 5845 5844 5843 5843 5843 5840 5838 5836 5833 5832 5830 5827 5824 5822 5819 5816
5745 5754 5758 5762 5765 5770 5779 5781 5788 5801 5805 5808 5812 5815 5817 5818 5820 5824 5825 5827 5828 5828 5828 5829 5831 5832 5833 5834 5836 5836 5836 5835 5836 5836 5835 5834 5834 5833 5831 5828 5826 5823 5821 5820 5818 5815 5812 5808 5805
5739 5744 5747 5751 5759 5767 5770 5774 5779 5793 5798 5802 5804 5806 5810 5813 5814 5816 5819 5820 5822 5822 5822 5823 5824 5825 5825 5826 5827 5827 5827 5827 5827 5826 5825 5824 5824 5822 5819 5816 5814 5812 5810 5808 5806 5803 5800 5796 5794
5725 5729 5743 5747 5754 5757 5759 5768 5774 5781 5790 5793 5796 5799 5802 5805 5808 5809 5809 5811 5812 5813 5814 5816 5816 5817 5818 5818 5817 5817 5816 5816 5816 5816 5815 5815 5814 5813 5809 5806 5805 5803 5800 5797 5795 5793 5789 5786 5782
5714 5732 5731 5736 5743 5748 5752 5757 5766 5772 5781 5785 5789 5791 5793 5795 5797 5799 5800 5801 5803 5804 5806 5806 5807 5809 5809 5808 5807 5807 5806 5806 5805 5804 5804 5804 5805 5803 5800 5796 5792 5790 5789 5787 5784 5781 5778 5774 5771
5707 5707 5718 5728 5734 5740 5745 5750 5760 5764 5768 5777 5780 5783 5785 5786 5786 5788 5791 5793 5794 5795 5796 5797 5797 5798 5797 5797 5797 5797 5796 5795 5793 5793 5793 5791 5790 5789 5787 5784 5781 5778 5776 5774 5771 5768 5764 5761 5758
5693 5704 5710 5715 5728 5732 5738 5743 5751 5758 5758 5763 5769 5771 5773 5775 5778 5779 5780 5782 5785 5787 5787 5787 5787 5787 5787 5787 5787 5787 5786 5784 5783 5782 5780 5777 5775 5774 5772 5770 5768 5765 5763 5761 5758 5755 5752 5747 5744
Wind_Speed
29 26 23 21 19 20 20 19 14 12 10 8 10 10 7 9 11 12 10 7 4 5 6 5 7 8 5 6 6 6 11 9 7 7 9 10 9 7 6 8 9 9 10 11 11 13 12 12 12
30 28 26 21 20 22 20 15 16 15 11 8 7 8 6 7 10 11 9 6 8 7 7 7 8 7 9 13 11 12 13 11 11 11 10 8 8 6 7 9 9 10 10 11 12 11 12 11 9
30 29 26 21 21 21 20 11 14 14 10 8 7 6 6 5 8 9 7 6 10 8 6 8 9 12 13 13 11 10 10 11 12 10 8 7 6 6 7 8 10 10 10 10 10 11 9 8 9
29 28 24 21 23 18 17 13 16 12 10 8 6 5 5 4 6 7 5 5 8 8 7 9 12 15 13 9 8 9 10 9 8 7 7 7 6 5 6 8 9 9 9 8 9 8 6 7 7
27 27 25 22 22 14 16 15 16 11 11 6 8 5 4 3 3 5 3 3 7 8 10 11 13 15 13 8 8 10 11 8 5 5 5 5 4 3 5 7 9 8 7 7 6 5 5 6 7
27 26 24 24 22 19 14 15 15 11 13 7 9 6 5 4 2 3 2 4 7 9 12 12 15 14 14 11 10 11 10 8 4 4 4 3 2 3 5 8 8 8 7 5 3 3 3 3 4
25 25 26 24 25 22 19 14 15 12 12 8 8 7 6 6 4 4 2 4 8 10 12 13 13 13 12 11 10 8 7 8 6 4 3 2 2 4 8 9 7 6 4 3 2 1 1 2 3
26 24 26 27 26 21 21 17 14 13 13 9 7 9 7 6 7 6 2 5 9 11 11 10 8 9 10 10 9 9 8 6 5 5 4 4 5 6 8 9 8 6 4 3 2 2 1 2 3
26 25 22 27 29 24 21 20 18 15 13 10 8 8 6 6 9 9 6 4 8 11 13 13 11 7 8 11 10 9 9 8 8 7 6 5 7 9 10 9 8 7 5 4 4 4 5 5 6
27 24 24 29 29 21 22 24 21 19 16 9 8 9 6 6 9 11 10 7 7 11 11 12 12 10 7 11 12 12 11 10 10 8 7 8 10 12 12 11 9 6 5 6 7 7 8 9 10
28 22 31 29 25 24 29 22 26 21 17 10 11 9 8 6 8 10 12 10 8 10 11 12 11 10 10 8 9 11 11 12 12 11 10 11 12 13 13 12 8 6 7 9 9 10 10 11 13
33 29 30 26 25 27 27 26 25 25 20 14 16 12 9 7 9 10 11 12 12 11 12 11 12 10 10 11 11 10 11 11 12 12 12 12 13 14 13 11 9 9 10 11 12 13 13 14 16
33 33 33 28 27 28 27 27 27 27 24 17 18 15 13 9 10 10 10 9 14 16 11 10 11 11 9 9 9 9 12 12 12 12 12 13 13 15 15 12 11 13 14 15 16 17 17 18 18
35 38 39 28 26 28 28 28 27 26 27 23 19 18 16 12 12 10 10 8 9 14 16 14 14 14 12 11 10 9 8 10 11 12 13 13 14 15 16 14 15 16 17 18 19 21 22 22 22
35 36 38 31 30 28 27 27 29 29 29 25 23 21 19 15 14 12 12 10 10 10 12 17 16 17 16 13 11 11 10 8 11 13 14 15 16 17 18 18 19 19 19 20 23 25 26 26 26
41 41 44 33 32 29 26 22 24 29 27 26 24 22 20 18 15 15 13 12 11 11 12 12 15 17 17 16 13 10 10 11 12 14 15 17 18 19 20 20 22 23 22 23 26 28 29 29 29
46 47 47 42 38 33 28 24 27 24 25 26 24 22 23 20 17 17 16 14 13 13 12 13 14 15 16 17 14 14 14 15 15 16 18 19 21 21 23 23 24 25 25 26 29 31 32 32 32
50 49 47 43 33 34 33 24 28 25 24 26 22 20 18 20 21 19 17 16 16 16 13 13 14 14 15 16 16 17 17 18 17 18 19 20 20 21 24 27 28 28 28 29 32 33 34 33 35
51 49 47 41 35 39 33 32 30 31 26 24 22 17 11 14 20 20 18 19 18 18 17 17 15 15 16 18 18 19 19 18 19 20 20 22 23 23 25 28 29 30 31 31 34 35 37 37 38
54 51 49 42 44 45 37 33 35 35 27 26 22 20 20 18 16 18 18 18 19 19 19 20 20 18 18 19 20 19 19 19 19 19 22 24 27 26 27 30 32 32 34 34 36 38 39 39 41
57 55 52 48 45 46 40 38 37 33 32 28 24 24 20 17 17 17 15 15 17 18 22 22 23 23 20 21 19 19 19 20 20 22 24 26 26 28 30 31 33 35 36 38 40 42 42 42 44
58 55 54 49 46 47 40 40 39 35 33 30 27 24 20 18 16 15 16 15 16 21 23 27 26 26 23 23 22 22 22 23 26 27 27 29 29 30 32 34 35 37 39 40 42 44 45 45 46
55 54 52 48 46 46 45 49 38 39 38 29 30 26 24 22 21 18 18 17 19 20 22 24 29 27 26 25 26 27 26 28 30 31 32 32 32 34 36 37 39 40 42 43 45 45 46 48 49
56 55 52 50 49 55 48 48 45 41 38 33 33 27 26 24 26 23 18 18 18 18 19 24 27 27 31 30 30 30 30 32 34 35 36 37 37 37 39 41 43 44 45 47 47 48 49 50 51
59 57 55 53 54 60 51 52 53 40 36 31 32 29 28 27 27 24 24 23 22 23 23 22 21 22 26 30 32 34 35 36 38 39 40 41 41 42 44 46 45 47 48 48 49 50 51 52 53
63 64 63 60 58 55 51 52 53 42 40 35 35 33 30 28 28 28 26 26 23 24 25 23 25 23 24 26 28 32 36 41 43 43 44 45 46 47 50 51 51 50 51 51 51 52 52 54 55
65 64 58 55 54 54 55 51 49 46 38 38 36 34 33 32 31 30 29 29 29 29 30 31 31 32 31 33 35 35 38 42 45 46 47 49 50 50 53 55 56 56 57 55 54 55 55 56 57
67 61 61 57 55 55 56 53 48 47 39 37 35 35 35 35 34 33 34 35 35 34 35 36 36 36 37 38 39 40 41 41 45 48 50 51 52 53 53 54 57 59 58 58 57 57 58 58 58
69 72 67 61 56 53 53 55 47 46 43 38 37 36 36 37 40 41 39 38 39 40 40 41 41 42 44 44 44 44 43 43 43 44 48 52 54 55 57 59 59 60 59 56 57 57 58 60 59
63 66 70 70 62 57 54 54 49 44 44 40 37 39 42 44 43 42 43 44 43 44 45 46 47 48 49 49 47 47 46 47 48 47 48 48 49 51 52 53 56 58 60 59 57 58 58 60 62
Wind_Direction
222 224 227 237 245 255 251 258 258 275 283 315 339 346 351 9 358 14 14 38 101 92 146 155 169 182 177 165 144 149 162 151 111 107 115 115 111 95 99 105 104 97 98 97 93 86 81 76 70
224 224 228 239 245 249 252 256 268 265 279 305 336 336 338 2 359 9 21 43 88 101 128 140 160 152 142 133 123 118 126 122 118 119 118 111 100 93 101 100 98 109 108 103 93 88 80 75 67
225 222 224 228 241 244 250 261 263 258 269 296 324 335 332 348 355 9 25 49 81 98 138 137 146 135 143 135 124 130 124 127 125 125 116 104 88 98 102 103 116 112 107 101 95 85 78 69 61
221 218 218 218 234 243 249 249 240 252 271 290 320 316 322 332 349 12 24 50 77 111 138 147 148 150 156 152 147 133 130 117 115 114 107 97 79 94 102 117 116 117 108 99 90 84 71 61 61
215 212 214 218 229 228 252 240 242 246 268 281 293 305 305 271 330 1 25 105 99 122 135 146 153 152 162 167 153 134 117 117 128 99 78 73 71 96 115 129 125 118 114 105 93 80 68 64 60
212 211 215 222 230 224 241 245 234 244 261 271 280 297 280 237 249 334 340 148 131 134 141 156 156 157 160 157 149 138 122 125 115 95 95 102 129 144 148 139 134 133 132 119 109 85 85 85 66
224 222 224 231 234 235 241 244 239 238 254 260 273 282 276 243 216 271 334 187 166 153 150 153 167 159 163 161 154 147 143 144 150 151 139 158 183 185 169 155 162 159 158 148 156 176 126 45 27
236 236 237 236 238 230 242 244 242 231 243 257 258 275 289 258 223 233 247 223 193 177 177 175 191 197 182 180 181 177 171 162 186 179 182 176 196 205 189 178 187 197 209 222 246 261 292 328 332
226 233 236 234 235 229 234 242 240 237 233 239 260 273 281 274 240 228 238 240 220 205 191 191 184 194 206 199 202 215 211 203 199 200 196 197 212 205 200 205 211 226 243 271 282 295 309 318 315
235 242 253 242 237 234 234 234 237 235 232 230 251 270 272 274 255 235 231 231 236 226 217 206 209 219 235 236 226 225 234 243 234 221 207 204 216 216 213 217 229 255 288 289 299 308 315 311 307
228 233 244 243 240 235 235 231 239 238 240 223 236 244 258 259 261 251 232 230 234 239 232 234 242 218 209 210 230 231 233 243 238 238 223 223 223 224 228 236 247 271 297 308 305 304 303 300 302
233 235 239 242 247 235 241 233 235 241 237 228 242 241 242 248 258 257 243 229 234 237 230 226 226 223 222 220 216 231 241 238 245 240 231 228 233 234 238 245 262 286 300 300 300 300 300 299 301
234 233 236 237 246 240 238 237 235 241 243 234 240 246 243 237 249 251 243 224 226 231 231 234 236 232 233 244 252 255 255 254 239 239 229 229 241 246 248 255 267 279 290 299 304 305 304 303 306
234 230 235 231 234 242 240 240 240 243 243 239 233 239 241 238 246 254 254 239 222 235 229 235 242 244 243 248 256 268 279 279 245 239 232 231 243 257 254 258 267 276 287 297 302 305 307 307 308
225 228 238 231 233 237 238 244 243 240 238 240 241 244 243 246 248 250 247 249 242 227 228 237 243 250 249 251 253 262 255 247 252 255 244 241 248 247 246 255 262 273 285 295 302 307 309 310 312
230 231 235 227 235 237 242 234 245 253 245 248 244 244 246 245 248 252 252 247 248 244 235 237 237 248 252 252 250 244 250 251 246 245 255 261 260 252 253 258 266 275 282 291 299 305 307 308 309
230 231 233 237 237 237 238 230 249 252 247 246 241 244 251 250 254 255 258 254 254 257 255 249 248 250 256 256 252 249 240 238 243 250 252 255 260 259 259 265 270 276 283 291 296 301 306 306 307
229 233 234 236 237 238 236 232 243 245 238 240 252 249 255 260 256 255 260 258 256 258 257 262 260 261 256 257 252 249 250 250 252 257 262 265 262 264 266 268 272 277 281 287 293 298 300 300 303
229 231 234 234 233 240 235 232 235 243 239 248 250 247 247 260 260 259 256 258 258 261 257 254 257 258 267 265 259 256 258 260 260 262 265 264 261 259 265 268 271 275 280 286 291 296 300 300 303
227 229 233 232 233 238 236 233 236 246 246 247 251 255 255 256 256 248 244 253 251 254 256 260 259 257 255 262 266 270 273 273 271 269 267 268 274 277 280 282 281 281 284 288 291 294 297 297 300
225 226 229 232 233 240 238 235 237 241 247 248 253 255 260 255 258 246 246 239 246 252 252 252 258 262 264 267 272 274 274 271 270 266 268 272 274 279 282 282 282 282 284 288 291 296 297 296 297
223 228 229 230 233 237 237 236 237 239 244 248 249 250 254 248 242 255 257 255 243 246 247 248 250 254 257 263 268 270 272 274 273 274 276 277 277 276 276 277 279 281 282 285 289 291 293 293 295
224 229 231 230 232 236 235 242 229 238 243 240 246 248 249 254 259 253 257 260 260 267 264 255 252 255 262 263 266 269 272 273 274 276 276 276 278 278 279 280 280 280 283 285 286 288 291 292 293
223 228 231 230 230 234 234 240 235 236 245 238 243 247 255 259 253 257 250 256 269 271 274 270 259 255 253 259 262 264 268 271 272 272 275 278 279 279 279 279 280 282 282 282 285 286 288 290 291
221 223 229 230 229 235 233 239 244 235 241 243 244 243 249 248 257 255 260 259 264 271 273 273 275 275 263 258 264 267 267 268 269 271 273 275 276 277 277 278 279 280 281 283 285 286 287 288 289
223 224 228 230 233 236 242 238 245 240 240 241 248 251 249 249 252 262 260 263 262 264 269 276 278 273 273 271 269 270 273 270 268 269 270 271 272 274 275 276 276 276 278 279 280 281 283 284 286
223 223 227 230 234 238 242 242 244 246 243 243 243 246 249 250 253 255 260 265 266 263 265 267 267 269 271 272 271 270 269 270 271 269 271 272 274 275 276 278 279 279 280 281 283 283 284 285 285
224 226 228 229 234 238 243 247 247 252 245 245 248 248 247 250 251 253 255 258 261 263 265 268 268 268 266 267 266 266 267 270 272 272 271 272 273 275 277 279 280 280 283 285 285 285 285 286 286
223 223 227 230 232 238 244 248 248 254 257 252 248 246 245 245 246 250 252 253 258 262 264 265 265 266 267 268 268 268 268 270 271 272 274 274 276 279 280 280 280 282 283 285 286 288 288 287 287
226 230 232 234 236 237 243 250 255 256 256 255 246 239 239 241 244 248 252 252 252 255 259 264 266 266 268 271 273 272 272 271 272 274 273 271 273 276 279 280 281 284 285 285 286 288 290 292 292